Lid_Strength_Index
2 4 5 7 11 13 15 14 13 12 11 9 8 9 9 8 9 12 5 3 0 0 -0 -1 -1 -1 -2 -1 -1 -2 -2 -1 -2 -2 -2 -2 -2 -2 -2 -2 -2 -2 -1 -1 -2 -2 -2 -2 -2
3 4 6 10 14 16 15 13 12 11 9 8 9 9 8 9 6 5 4 1 -0 -0 -0 -0 -1 -1 -1 -1 -1 -1 -1 -2 -2 -2 -2 -2 -2 -2 -2 -2 -2 -2 -2 -2 -2 -2 -2 -2 -2
4 5 8 12 15 16 15 13 12 10 9 11 9 8 7 8 5 5 4 0 -0 0 -0 -0 -1 -1 -2 -1 -1 -1 -1 -2 -2 -2 -2 -2 -2 -2 -2 -2 -2 -2 -2 -2 -2 -2 -2 -2 -2
6 7 10 13 15 14 13 12 12 10 11 9 9 9 7 5 5 4 2 0 0 0 -0 -0 -1 -2 -1 -1 -1 -1 -1 -1 -2 -2 -2 -2 -2 -2 -2 -2 -2 -2 -2 -1 -1 -1 -2 -2 -2
8 10 13 14 14 12 13 11 11 11 12 11 10 10 8 5 4 2 1 1 1 0 -0 -0 -1 -1 -1 -1 -1 -2 -1 -1 -2 -2 -2 -2 -2 -2 -2 -2 -2 -2 -2 -1 -1 -1 -1 -1 -2
9 11 14 16 15 13 12 11 11 12 11 10 9 9 8 7 4 6 4 3 1 0 -0 -0 1 -0 -1 -1 -2 -2 -1 -1 -1 -2 -2 -2 -2 -2 -2 -2 -2 -2 -1 -0 0 -0 -0 -0 -0
11 12 14 15 14 13 11 10 12 12 11 11 8 10 8 7 6 7 8 7 5 2 1 -0 -0 0 1 -0 -0 -1 -1 -1 -1 -1 -2 -2 -2 -2 -2 -2 -2 -2 -1 -1 -0 0 0 0 0
11 12 15 15 14 13 11 11 11 11 12 10 10 11 9 7 6 8 10 10 10 8 7 4 1 0 0 -0 1 0 -0 -1 -1 -1 -0 -0 -0 -1 -1 -1 -2 -2 -1 -1 -0 0 0 1 1
12 14 16 14 14 12 11 12 11 11 11 11 10 10 9 7 8 10 11 11 10 10 10 9 4 3 0 -0 1 2 1 0 0 1 1 2 0 -1 -1 -0 -1 -2 -2 -1 -0 1 2 3 3
12 15 14 12 12 12 11 11 10 11 12 12 11 10 9 7 9 9 10 11 12 11 9 10 8 7 5 1 1 0 0 -0 -1 0 0 -0 -1 -1 -0 1 -0 -1 -1 -2 -0 1 3 5 7
13 14 12 11 10 10 11 12 11 11 13 11 11 10 9 8 8 8 11 11 11 12 10 9 8 8 8 4 1 0 1 0 -0 1 0 -0 0 1 0 1 2 1 1 2 3 4 5 6 6
13 12 12 10 10 11 11 10 12 11 11 10 10 10 10 9 8 9 9 9 10 10 9 9 8 7 8 7 1 1 2 1 0 0 0 1 1 2 1 1 2 1 2 3 3 4 4 5 5
13 12 11 10 10 11 10 11 11 11 11 11 10 9 10 10 10 10 10 9 9 8 7 7 6 5 5 7 -0 2 3 3 2 1 0 0 1 1 1 2 2 2 2 3 4 4 5 4 4
11 11 11 11 11 11 11 12 11 11 11 11 10 10 10 10 10 11 10 10 9 8 8 7 5 4 4 2 1 3 3 4 3 3 3 2 2 3 3 3 3 3 3 3 3 4 5 5 4
11 13 12 12 11 11 11 12 12 12 11 11 11 11 11 11 11 11 10 10 9 8 8 7 5 3 3 2 3 4 4 4 5 5 4 4 3 4 4 4 4 4 3 4 5 6 6 6 6
13 13 15 12 11 12 12 14 11 12 12 12 12 13 12 11 11 11 11 11 9 9 8 7 4 4 3 3 4 5 5 5 5 5 5 5 5 5 5 5 5 5 5 5 6 7 8 9 8
14 16 16 13 11 12 13 14 12 13 12 13 13 13 13 12 12 12 11 11 9 9 8 8 7 5 5 5 6 7 7 7 6 6 6 7 7 6 6 7 7 6 7 9 10 11 10 9 9
16 16 16 15 13 13 14 14 12 13 13 12 13 13 13 12 11 12 12 10 9 9 9 8 7 6 7 7 8 9 9 10 9 8 8 9 9 9 8 8 8 9 11 12 12 12 12 12 11
14 15 16 14 12 13 14 13 12 12 14 14 13 13 12 12 11 12 12 10 10 9 9 9 8 8 8 8 9 9 11 11 10 10 10 10 11 11 11 12 12 12 12 13 13 14 12 14 14
14 15 15 14 13 13 14 14 13 13 13 12 12 12 12 12 13 12 12 11 10 9 9 9 9 8 8 8 11 11 12 13 12 11 12 12 13 13 13 13 14 14 14 14 15 15 16 16 16
14 15 15 14 14 14 15 16 14 12 12 12 11 10 11 11 12 13 12 11 10 10 9 9 9 8 8 12 13 13 13 13 13 13 13 13 14 14 14 14 15 15 15 16 16 16 16 17 17
15 12 13 14 15 17 15 18 16 14 13 13 11 11 11 11 12 13 12 11 10 10 9 9 9 8 11 11 12 12 12 13 14 14 14 15 15 15 15 15 16 16 16 16 17 16 17 17 18
13 12 13 14 16 17 17 18 17 15 14 12 11 11 10 11 12 13 13 11 11 10 10 9 9 10 11 11 11 12 13 15 15 15 15 17 16 16 16 16 16 17 16 17 17 17 17 17 18
12 13 14 15 16 20 15 17 16 16 13 13 11 11 12 13 13 13 13 11 11 11 10 9 9 11 12 11 12 13 15 16 16 16 16 17 17 17 17 17 17 17 17 17 17 17 17 17 17
12 14 18 20 21 19 18 19 15 14 13 12 11 11 13 14 15 15 14 12 12 12 10 9 10 13 12 12 13 14 15 15 16 16 17 17 17 18 18 17 17 17 17 17 17 18 18 18 18
13 14 18 22 22 21 18 20 17 14 12 13 12 12 14 15 15 14 13 12 12 11 11 10 11 14 14 14 14 14 15 15 15 16 16 17 17 18 18 18 18 18 18 18 18 18 18 19 19
14 16 13 17 25 22 19 17 15 13 14 13 13 14 15 14 16 15 14 13 12 12 12 11 13 14 14 14 15 15 15 16 16 18 18 18 18 18 18 18 18 18 18 18 19 19 19 19 19
14 13 17 18 23 25 20 19 17 15 14 13 13 13 15 15 16 15 14 13 13 13 14 14 14 14 14 15 15 15 16 16 17 17 18 18 18 18 18 18 18 19 19 19 19 20 19 20 20
15 16 16 16 18 22 24 19 15 13 13 13 13 13 14 15 16 16 15 15 14 15 16 16 15 15 15 15 16 16 16 17 17 17 18 18 18 18 18 18 19 19 19 19 20 20 20 20 20
15 15 15 19 21 20 20 17 14 14 13 13 12 13 15 15 16 16 16 16 16 16 16 17 17 16 15 15 16 17 17 17 17 18 18 18 18 18 19 19 19 19 19 20 19 20 20 20 20